Regional Weather Roundup
Issued by NWS

Home | Current Version | Previous Version | Text Only | Print | Product List | Glossary On
Versions: 1 2 3 4 5 6 7 8 9 10 11 12 13 14 15 16 17 18 19 20 21 22 23 24 25 26 27 28 29 30 31 32 33 34 35 36 37 38 39 40 41 42 43 44 45 46 47 48 49 50
483
ASUS43 KDTX 240101
RWRMI
MICHIGAN HOURLY REGIONAL WEATHER ROUNDUP
NATIONAL WEATHER SERVICE DETROIT/PONTIAC MI
900 PM EDT MON MAY 23 2016

NOTE: "FAIR" INDICATES FEW OR NO CLOUDS BELOW 12,000 FEET WITH NO
SIGNIFICANT WEATHER AND/OR OBSTRUCTION TO VISIBILITY.

MIZ047>049-052>055-059>063-066>070-074>076-081>083-240200-
SOUTHEAST LOWER MICHIGAN

CITY           SKY/WX    TMP DP  RH WIND       PRES   REMARKS
ADRIAN         CLEAR     68  41  37 CALM      29.99R
ALMA           CLEAR     68  43  40 S9        29.96S
ANN ARBOR      CLEAR     67  46  47 S7        29.99R
BAD AXE        CLEAR     63  41  44 CALM      29.97R
CARO           CLEAR     60  43  53 CALM      29.96R
DETROIT CITY   CLEAR     68  40  35 S7        29.98S
DETROIT        PTCLDY    67  44  43 SE7       30.00R
FLINT          CLEAR     74  33  22 SW5       29.97R
GROSSE ILE     CLEAR     64  50  59 S5        29.98R
HILLSDALE      CLEAR     68  26  20 CALM      30.01R
HOWELL         CLEAR     69  31  24 S3        29.98R

CITY           SKY/WX    TMP DP  RH WIND       PRES   REMARKS
JACKSON        CLEAR     67  34  29 S6        29.99R
LAMBERTVILLE   CLEAR     66  50  57 CALM      30.00R
LANSING        CLEAR     70  40  33 CALM      29.98R
LAPEER         FAIR      66  37  34 CALM      29.98R
MASON          CLEAR     70  37  30 SE3       29.98R
MONROE         CLEAR     63  53  70 SE6       29.99R
PONTIAC        CLEAR     72  29  20 S5        29.97S
PORT HOPE        N/A     61  40  45 S8        29.95S
PORT HURON     CLEAR     64  48  55 CALM      29.98S
TRI CITIES     CLEAR     73  37  27 S6        29.97R
MIDLAND        FAIR      73  37  27 S3        29.95R
TROY           CLEAR     72  39  30 S9        30.00R
SAGINAW HB     CLEAR     68  34  28 S3        29.96R
$$
MIZ043>046-050>051-056>058-064>065-071>073-077>080-240200-
SOUTHWEST LOWER MICHIGAN

CITY           SKY/WX    TMP DP  RH WIND       PRES   REMARKS
BATTLE CREEK   CLEAR     67  35  30 S7        29.99R
BENTON HARBOR  CLEAR     65  45  48 CALM      29.95S
BIG RAPIDS     CLEAR     70  42  35 W6        29.95R
COLDWATER      CLEAR     65  34  30 CALM      29.99R
FREMONT        FAIR      68  40  35 CALM      29.95F
HOLLAND        CLEAR     66  43  43 CALM      29.96F
GRAND RAPIDS   PTCLDY    73  44  35 W9        29.97R
IONIA          FAIR      72  37  27 S6        29.95S
KALAMAZOO      CLEAR     67  36  31 SW5       29.98R
LUDINGTON      CLEAR     66  33  29 SW3       29.94S
MARSHALL       CLEAR     68  37  31 S3        29.98R
MOUNT PLEASANT CLEAR     72  40  31 S5        29.95R
MUSKEGON       PTCLDY    66  41  40 SE3       29.95F
SOUTH HAVEN    CLEAR     65  46  49 CALM      29.96S
$$
MIZ016>042-240200-
NORTHERN LOWER MICHIGAN

CITY           SKY/WX    TMP DP  RH WIND       PRES   REMARKS
ALPENA         CLEAR     57  46  66 E5        29.91S
BEAVER ISLAND  CLEAR     63  33  32 SW13G18   29.90F
BELLAIRE       CLEAR     65  49  54 CALM      29.92S
CADILLAC       CLEAR     67  38  33 W3        29.95S
CHARLEVOIX     CLEAR     67  38  35 S3        29.94S
FRANKFORT      CLEAR     68  36  31 SW7G16    29.92S
GAYLORD        CLEAR     71  42  35 CALM      29.93S
GRAYLING       CLEAR     73  39  28 SW3       29.94S
HARBOR SPRINGS CLEAR     59  42  52 CALM      29.92S
HOUGHTON LAKE  CLEAR     70  44  39 SW5       29.95R
MANISTEE       CLEAR     70  30  23 S5        29.94S
OSCODA         CLEAR     66  38  36 S5        29.93S
PELLSTON       CLEAR     64  36  35 CALM      29.92F
ROGERS CITY    CLEAR     55  44  67 CALM      29.92S
TRAVERSE CITY  PTCLDY    72  36  26 VRB3      29.91S
$$
MIZ007>008-015-240200-
EASTERN UPPER MICHIGAN

CITY           SKY/WX    TMP DP  RH WIND       PRES   REMARKS
KINROSS          N/A     63  39  42 S7        29.90S
MACKINAC ISLAN CLEAR     61  41  47 SE8       29.91S
NEWBERRY       CLEAR     63  36  37 S12       29.88S
S. S. MARIE    CLEAR     64  41  42 SE8       29.90R
MUNISING         N/A     69  40  34 S15G22    29.82R
$$
MIZ004>006-011>014-085-240200-
CENTRAL UPPER MICHIGAN

CITY           SKY/WX    TMP DP  RH WIND       PRES   REMARKS
MANISTIQUE     CLEAR     55  43  63 SW7       29.87S
ESCANABA       CLEAR     61  43  51 S10       29.85S
MENOMINEE      CLEAR     70  45  40 S9        29.85S
SAWYER-GWINN   CLEAR     70  46  43 S17       29.83R
$$
MIZ001>003-009>011-084-240200-
WESTERN UPPER MICHIGAN

CITY           SKY/WX    TMP DP  RH WIND       PRES   REMARKS
IRON MOUNTAIN  CLOUDY    76  49  38 SE8       29.81R
HOUGHTON       CLOUDY    69  55  60 W16       29.78R
COPPER HARBOR    N/A     67  51  56 CALM      29.76R
IRONWOOD       CLOUDY    64  63  94 NW8       29.79R
$$

ABBREVIATIONS USED IN REMARKS
   TC - TEMPERATURE IN CELSIUS
  WCI - WIND CHILL INDEX
   HX - HEAT INDEX
  VSB - VISIBILITY





USA.gov is the U.S. government's official web portal to all federal, state and local government web resources and services.